Regional Weather Roundup
Issued by NWS Upton, NY

Current Version | Previous Version | Graphics & Text | Print | Product List | Glossary Off
Versions: 1 2 3 4 5 6 7 8 9 10 11 12 13 14 15 16 17 18 19 20 21 22 23 24 25 26 27 28 29 30 31 32 33 34 35 36 37 38 39 40 41 42 43 44 45 46 47 48 49 50

686
ASUS41 KOKX 110904
RWROKX

REGIONAL WEATHER ROUNDUP
NATIONAL WEATHER SERVICE NEW YORK NY
400 AM EST THU FEB 11 2016

NOTE: "FAIR" INDICATES FEW OR NO CLOUDS BELOW 12,000 FEET WITH NO
SIGNIFICANT WEATHER AND/OR OBSTRUCTIONS TO VISIBILITY.

NYZ071-072-176-178-NJZ106-104-111000-
NEW YORK CITY METRO AREA


CITY           SKY/WX    TMP DP  RH WIND       PRES   REMARKS
CENTRAL PARK   CLOUDY    26   4  38 W12G23    29.80R WCI  16
LAGUARDIA APRT CLOUDY    28  10  46 W20G30    29.78R WCI  15
KENNEDY INTL   CLOUDY    27  13  55 W22       29.79S WCI  13
NEWARK/LIBERTY CLOUDY    26   9  48 W22G28    29.80S WCI  12
BRNX BOT. GARD   N/A     27   7  43 W8        29.77F WCI  18
TETERBORO      CLOUDY    25   4  40 W16G28    29.78S WCI  12
$$

NYZ177-179-078>081-111000-
LONG ISLAND NEW YORK

CITY           SKY/WX    TMP DP  RH WIND       PRES   REMARKS
FARMINGDALE    CLOUDY    26  16  65 NW10      29.76S WCI  16
ISLIP          CLOUDY    27  17  66 W17G24    29.72R WCI  14
SHIRLEY        LGT SNOW  28  20  71 W20G25    29.74R WCI  15
RIVERHEAD        N/A     30  23  74 NW8       29.68S WCI  23
WESTHAMPTON    FLURRIES  28  21  75 W17       29.73R WCI  16
EAST HAMPTON   LGT SNOW  29  26  88 NW5       29.69S WCI  24
MONTAUK POINT    N/A     31  20  63 W8        29.70R WCI  23
$$

NYZ052-065-067-111000-
HUDSON VALLEY

CITY           SKY/WX    TMP DP  RH WIND       PRES   REMARKS
WHITE PLAINS   CLOUDY    24   9  52 W22G33    29.73R WCI   9
NEWBURGH       CLOUDY    23   9  54 W23G35    29.74S WCI   7
MONTGOMERY     CLOUDY    22   4  46 W10G20    29.75R WCI  11
POUGHKEEPSIE   CLOUDY    26   7  44 W13       29.74S WCI  15
ALBANY         FLURRIES  23  12  62 W14G21    29.72S WCI  11
$$

NJZ001-105-106-008-010-013-015-019>022-104-111000-
NEW JERSEY

CITY           SKY/WX    TMP DP  RH WIND       PRES   REMARKS
NEWARK/LIBERTY CLOUDY    26   9  48 W22G28    29.80S WCI  12
TETERBORO      CLOUDY    25   4  40 W16G28    29.78S WCI  12
CALDWELL       CLOUDY    24  -1  33 NW16G26   29.80R WCI  11
MORRISTOWN     CLOUDY    25   1  36 NW13G18   29.79S WCI  13
SOMERVILLE     CLOUDY    25   5  42 NW8G30    29.81R WCI  16
SUSSEX         PTCLDY    21   1  41 W12G17    29.78R WCI   9
ANDOVER          N/A     21  -1  38 NW8       29.79R WCI  11
TRENTON        PTCLDY    24   8  50 NW15G21   29.83R WCI  11
MILLVILLE      CLEAR     23  11  60 W12G22    29.90R WCI  12
ATLANTIC CITY  PTCLDY    24  11  57 W15G22    29.87R WCI  11
WRIGHTSTOWN    CLOUDY    24  13  63 W14       29.82R WCI  12
TOMS RIVER     CLOUDY    25  10  54 NW14G21   29.84R WCI  13
BELMAR         CLOUDY    25  10  54 W13G25    29.80S WCI  13
$$

PAZ047>061-062-071-111000-
EASTERN PENNSYLVANIA

CITY           SKY/WX    TMP DP  RH WIND       PRES   REMARKS
PHILADELPHIA   MOCLDY    24  10  55 W16G25    29.89S WCI  11
ALLENTOWN      CLEAR     21   4  47 W8        29.84S WCI  11
SCRANTON       CLEAR     15   0  51 W8        29.79S WCI   4
$$

CTZ002-004>006-009-010-012-RIZ004-006-007-MAZ004-011-015-111000-
SOUTHERN NEW ENGLAND
 IN CT

CITY           SKY/WX    TMP DP  RH WIND       PRES   REMARKS
BRADLEY INTL   MOCLDY    26  13  57 NW5       29.68S WCI  20
HARTFORD       CLOUDY    29  15  56 NW9       29.70S WCI  20
DANBURY        CLOUDY    24   5  44 W8        29.72S WCI  15
WTRBRY/OXFORD  CLOUDY    23  10  58 W8        29.69R WCI  14
BRIDGEPORT     CLOUDY    28  15  58 W16G24    29.73R WCI  16
MERIDEN        LGT SNOW  27  22  81 NW7       29.70S WCI  19
NEW HAVEN      CLOUDY    28  19  69 NW12G23   29.71R WCI  18
CHESTER        FLURRIES  28  23  80 NW3       29.68S
GROTON         CLOUDY    26  21  81 NW5       29.69S WCI  20
WILLIMANTIC    CLOUDY    23  15  71 CALM      29.68S

 IN RI

CITY           SKY/WX    TMP DP  RH WIND       PRES   REMARKS
PROVIDENCE     CLEAR     25  15  66 NW6       29.67S WCI  18
BLOCK ISLAND   CLOUDY    30  18  59 NW9       29.67R WCI  22
WESTERLY       CLOUDY    26  17  68 W3        29.69S

 IN MA

CITY           SKY/WX    TMP DP  RH WIND       PRES   REMARKS
BOSTON         CLEAR     27  17  66 W10       29.65S WCI  17
WORCESTER      CLEAR     20  13  74 W14       29.60S WCI   7
WESTFIELD      CLOUDY    23  11  60 W5        29.67S WCI  17
PROVINCETOWN   CLEAR     31  23  72 W14       29.64S WCI  21
NANTUCKET      CLOUDY    33  22  63 NW9       29.65S WCI  25
$$

ANZ330-335-338-340-345-350-353-355-111000-
COASTAL MARINE OBSERVATIONS


STATION/POSITION TIME  SKY/WX   TEMP    WIND        PRES    VSBY  WAVE
                                AIR SEA DIR/SP/G                  HT/PER
                 (UTC)          (F)     (DEG/KT/KT) (MB)    (MI)  (FT/S)
NY HARB ENTRANCE 0750            28 43  280/ 27/ 31 1007.4          5/ 4
4S FIRE IS       NOT AVBL
20S FIRE ISLAND  0750            31 44  280/ 25/ 31 1006.9          7/ 6
GREAT SOUTH BAY  NOT AVBL
23SW MTP         0850            32 46  290/ 17/ 21 1005.2          7/10
HUDSON CANYON    0750            35 48              1007.0          7/ 7
KINGS POINT      0800            26 38  350/ 19/ 23 1007.8
EXECUTION ROCKS  NOT AVBL
CENTRAL LI SOUND 0800            33     290/ 17/ 21   N/A           3/ 5
EASTERN LI SOUND 0800            33 42  310/ 12/ 14   N/A
ROBBINS REEF     0800            26     310/ 23/ 29 1007.8
$$


>>>>>>>>>>>>>>>>>>>>>>>>>>>> KEY <<<<<<<<<<<<<<<<<<<<<<<<<<<
>                                                          <
>     SKY/WX - SKY CONDITION/PRESENT WEATHER               <
>     TMP    - TEMPERATURE IN FAHRENHEIT                   <
>     DP     - DEWPOINT IN FAHRENHEIT                      <
>     RH     - RELATIVE HUMIDITY IN PERCENT                <
>     WIND   - DIRECTION AND SPEED IN MPH                  <
>     PRES   - MEAN SEA LEVEL PRESSURE IN INCHES OF HG     <
>     WCI    - WIND CHILL INDEX                            <
>     VSB    - VISIBILITY IN MILES                         <
>     HX     - HEAT INDEX                                  <
>     TC     - TEMPERATURE IN CELSIUS                      <
>     VRB    - VARIABLE WIND DIRECTION                     <
>                                                          <
>>>>>>>>>>>>>>>>>>>>>>>>>>>> KEY <<<<<<<<<<<<<<<<<<<<<<<<<<<






USA.gov is the U.S. government's official web portal to all federal, state and local government web resources and services.